Total_Precipitation_Accumulation
0.09 0.09 0.07 0.07 0.06 0.06 0.05 0.06 0.06 0.05 0.05 0.04 0.04 0.04 0.04 0.06 0.05 0.06 0.06 0.06 0.04 0.03 0.04 0.02 0.03 0.03 0.03 0.03 0.01 0.00 0.01 0.00 0.00 0.00 0.00 0.00 0.00 0.00 0.00 0.00 0.00 0.00 0.00 0.00 0.01 0.00 0.01 0.00 0.00 0.01 0.01 0.01 0.01 0.06 0.01 0.03 0.14 0.34 1.79 1.61 2.49 2.52 2.80 3.57 4.18 4.01 2.79 3.50 2.70 2.17 2.06 2.46 1.67 0.84 1.19 0.46 0.78 0.89 0.41 0.71 0.27 0.43 0.49 0.30 0.07 0.01 0.00 0.01
0.09 0.08 0.06 0.05 0.05 0.05 0.05 0.05 0.05 0.04 0.03 0.04 0.05 0.04 0.06 0.05 0.05 0.04 0.05 0.05 0.05 0.05 0.04 0.05 0.03 0.03 0.04 0.01 0.00 0.00 0.01 0.00 0.00 0.00 0.00 0.00 0.00 0.00 0.00 0.00 0.00 0.00 0.00 0.00 0.00 0.00 0.00 0.00 0.00 0.00 0.01 0.03 0.00 0.02 0.02 0.11 0.04 0.45 0.82 1.78 2.66 1.79 1.57 1.92 1.95 3.35 3.56 2.47 2.28 2.28 1.85 2.11 2.11 0.65 1.02 1.75 0.77 0.81 0.48 0.91 0.98 0.51 0.34 0.13 0.02 0.01 0.02 0.02
0.09 0.07 0.07 0.06 0.06 0.06 0.05 0.05 0.04 0.03 0.04 0.04 0.04 0.06 0.06 0.07 0.05 0.05 0.03 0.03 0.04 0.05 0.05 0.03 0.03 0.03 0.02 0.02 0.00 0.00 0.01 0.00 0.00 0.00 0.00 0.00 0.00 0.00 0.00 0.00 0.00 0.00 0.00 0.00 0.00 0.00 0.00 0.00 0.00 0.00 0.00 0.01 0.01 0.06 0.01 0.15 0.08 0.34 0.66 2.13 2.52 1.12 1.69 1.29 2.73 2.73 3.14 2.36 2.11 2.20 1.42 2.22 1.61 1.89 0.78 1.29 1.40 1.11 1.03 1.07 0.66 1.05 0.86 0.30 0.07 0.03 0.03 0.03
0.07 0.07 0.07 0.07 0.07 0.06 0.06 0.04 0.03 0.03 0.04 0.05 0.05 0.06 0.07 0.06 0.05 0.04 0.04 0.04 0.04 0.03 0.04 0.04 0.03 0.03 0.03 0.00 0.00 0.01 0.00 0.00 0.00 0.00 0.00 0.00 0.00 0.00 0.00 0.00 0.00 0.00 0.00 0.00 0.00 0.00 0.00 0.00 0.00 0.00 0.00 0.01 0.00 0.01 0.05 0.07 0.15 1.11 0.61 1.18 2.30 1.01 1.33 1.48 2.55 2.93 2.58 2.42 2.97 1.93 1.86 1.81 1.47 1.47 1.30 1.14 1.56 1.30 1.56 0.82 1.29 1.40 0.81 0.12 0.06 0.02 0.01 0.03
0.08 0.06 0.08 0.08 0.06 0.06 0.04 0.03 0.02 0.03 0.04 0.05 0.05 0.06 0.06 0.05 0.04 0.03 0.04 0.04 0.04 0.03 0.04 0.03 0.03 0.03 0.00 0.00 0.00 0.00 0.00 0.00 0.00 0.00 0.00 0.00 0.00 0.00 0.00 0.00 0.00 0.00 0.00 0.00 0.00 0.00 0.00 0.00 0.00 0.00 0.00 0.00 0.01 0.02 0.02 0.03 0.01 0.09 0.48 0.59 0.81 0.83 1.17 1.15 1.33 1.38 1.99 3.07 4.03 2.20 1.73 2.32 1.79 0.82 1.04 1.07 1.75 2.19 0.79 0.68 0.48 0.92 0.62 0.23 0.05 0.02 0.02 0.02
0.08 0.08 0.07 0.08 0.06 0.03 0.03 0.02 0.03 0.04 0.05 0.05 0.06 0.05 0.05 0.05 0.04 0.05 0.04 0.04 0.03 0.03 0.02 0.03 0.03 0.01 0.01 0.00 0.01 0.01 0.00 0.00 0.00 0.00 0.00 0.00 0.00 0.00 0.00 0.00 0.00 0.00 0.00 0.00 0.00 0.00 0.00 0.00 0.00 0.00 0.00 0.00 0.01 0.03 0.00 0.03 0.03 0.81 0.63 0.58 0.57 0.42 0.95 0.52 1.08 1.87 2.50 2.54 2.71 1.68 2.27 1.53 1.42 1.38 1.25 0.99 2.24 1.52 0.56 0.25 0.29 0.25 0.31 0.29 0.06 0.01 0.02 0.03
0.07 0.08 0.07 0.05 0.04 0.02 0.02 0.03 0.04 0.04 0.06 0.06 0.07 0.05 0.04 0.04 0.04 0.04 0.03 0.02 0.03 0.03 0.03 0.02 0.02 0.01 0.00 0.01 0.00 0.00 0.00 0.00 0.00 0.00 0.00 0.00 0.00 0.00 0.00 0.00 0.00 0.00 0.00 0.00 0.00 0.00 0.00 0.00 0.00 0.00 0.00 0.00 0.00 0.00 0.00 0.01 0.06 0.11 0.75 0.44 0.70 0.52 0.23 0.46 1.24 2.19 2.29 2.05 2.55 2.56 1.70 1.76 1.42 1.68 0.89 1.46 0.94 1.05 0.54 0.44 0.33 0.46 0.13 0.15 0.22 0.03 0.01 0.02
0.08 0.06 0.05 0.04 0.02 0.02 0.03 0.03 0.05 0.06 0.05 0.05 0.05 0.05 0.03 0.03 0.03 0.02 0.02 0.02 0.03 0.02 0.02 0.02 0.02 0.00 0.00 0.00 0.00 0.00 0.00 0.00 0.00 0.00 0.00 0.00 0.00 0.00 0.00 0.00 0.00 0.00 0.00 0.00 0.00 0.00 0.00 0.00 0.00 0.00 0.00 0.00 0.01 0.01 0.00 0.01 0.08 0.24 0.28 0.40 0.48 0.62 0.51 0.76 0.98 2.18 3.16 4.65 3.43 2.35 1.82 2.29 1.28 1.11 0.53 1.10 0.60 0.58 0.69 0.14 0.09 0.28 0.41 0.12 0.11 0.12 0.09 0.05
0.06 0.06 0.04 0.03 0.02 0.02 0.02 0.04 0.05 0.05 0.05 0.04 0.04 0.04 0.04 0.03 0.03 0.02 0.02 0.01 0.02 0.02 0.01 0.02 0.01 0.00 0.02 0.00 0.00 0.00 0.00 0.00 0.00 0.00 0.00 0.00 0.00 0.00 0.00 0.00 0.00 0.00 0.00 0.00 0.00 0.00 0.00 0.00 0.00 0.00 0.00 0.00 0.00 0.00 0.00 0.02 0.47 0.07 0.37 0.12 0.35 0.56 0.61 1.11 1.19 1.71 1.80 2.63 3.45 3.40 3.01 2.32 1.37 0.68 1.36 1.40 0.82 0.78 0.34 0.11 0.14 0.32 0.29 0.40 0.29 0.34 0.09 0.08
0.06 0.05 0.04 0.02 0.02 0.02 0.03 0.03 0.04 0.05 0.04 0.04 0.04 0.04 0.04 0.02 0.02 0.01 0.01 0.02 0.01 0.02 0.01 0.01 0.00 0.01 0.00 0.00 0.00 0.00 0.00 0.00 0.00 0.00 0.00 0.00 0.00 0.00 0.00 0.00 0.00 0.00 0.00 0.00 0.00 0.00 0.00 0.00 0.00 0.00 0.00 0.00 0.00 0.01 0.00 0.02 0.91 0.02 0.12 0.45 0.49 1.00 0.74 1.16 1.02 1.16 1.96 2.18 2.77 4.20 3.59 2.96 1.36 0.70 1.44 1.28 0.42 0.34 0.48 0.14 0.13 0.44 0.30 0.43 0.36 0.35 0.22 0.08
0.06 0.04 0.03 0.02 0.02 0.02 0.03 0.03 0.03 0.03 0.04 0.04 0.04 0.03 0.02 0.03 0.02 0.02 0.01 0.01 0.01 0.01 0.02 0.01 0.00 0.01 0.00 0.00 0.00 0.00 0.00 0.00 0.00 0.00 0.00 0.00 0.00 0.00 0.00 0.00 0.00 0.00 0.00 0.00 0.00 0.00 0.00 0.00 0.00 0.00 0.00 0.04 0.00 0.00 0.00 0.12 0.01 0.04 0.07 0.34 0.61 0.73 0.73 1.04 1.80 1.19 1.97 2.69 2.87 6.19 4.91 3.22 2.49 1.20 1.47 0.81 0.38 0.60 0.67 0.14 0.17 0.08 0.21 0.28 0.29 0.26 0.37 0.28
0.04 0.04 0.02 0.02 0.02 0.02 0.02 0.03 0.03 0.03 0.04 0.04 0.03 0.03 0.03 0.02 0.02 0.01 0.01 0.01 0.01 0.01 0.00 0.01 0.00 0.00 0.00 0.00 0.00 0.00 0.00 0.00 0.00 0.00 0.00 0.00 0.00 0.00 0.00 0.00 0.00 0.00 0.00 0.00 0.00 0.00 0.00 0.00 0.00 0.00 0.01 0.00 0.02 0.00 0.00 0.00 0.02 0.02 0.18 0.72 0.96 1.17 1.26 1.48 1.77 2.25 2.40 2.07 2.89 4.07 4.05 4.64 5.18 2.44 1.21 0.73 0.39 0.38 0.48 0.17 0.22 0.23 0.39 0.12 0.32 0.39 0.21 0.60
0.03 0.02 0.02 0.01 0.02 0.03 0.03 0.03 0.03 0.04 0.04 0.03 0.02 0.02 0.02 0.02 0.01 0.01 0.00 0.00 0.00 0.01 0.02 0.00 0.01 0.00 0.00 0.00 0.00 0.00 0.00 0.00 0.00 0.00 0.00 0.00 0.00 0.00 0.00 0.00 0.00 0.00 0.00 0.00 0.00 0.00 0.00 0.00 0.00 0.00 0.00 0.00 0.00 0.03 0.18 0.01 0.03 0.03 0.07 0.44 0.64 1.07 1.55 1.35 2.09 2.46 2.27 2.80 2.63 2.76 3.11 2.84 3.68 3.64 1.26 0.53 0.58 0.55 0.32 0.45 0.07 0.38 0.16 0.23 0.12 0.43 0.12 0.43
0.03 0.01 0.01 0.02 0.02 0.03 0.03 0.03 0.03 0.04 0.03 0.02 0.02 0.02 0.01 0.01 0.01 0.00 0.00 0.00 0.00 0.01 0.01 0.00 0.00 0.00 0.00 0.00 0.00 0.00 0.00 0.00 0.00 0.00 0.00 0.00 0.00 0.00 0.00 0.00 0.00 0.00 0.00 0.00 0.00 0.00 0.00 0.00 0.00 0.00 0.00 0.00 0.01 0.00 0.34 0.03 0.02 0.31 0.16 0.26 0.64 0.70 1.87 1.32 1.21 1.94 2.07 1.77 1.41 2.03 2.32 2.47 3.52 1.98 1.76 1.38 1.39 0.39 0.49 0.32 0.27 0.47 0.41 0.49 0.19 0.11 0.12 0.18
0.03 0.02 0.03 0.03 0.03 0.02 0.02 0.03 0.03 0.03 0.03 0.02 0.02 0.02 0.01 0.00 0.00 0.00 0.00 0.00 0.01 0.01 0.00 0.02 0.00 0.00 0.00 0.00 0.00 0.00 0.00 0.00 0.00 0.00 0.00 0.00 0.00 0.00 0.00 0.00 0.00 0.00 0.00 0.00 0.00 0.00 0.00 0.00 0.00 0.00 0.00 0.00 0.00 0.03 0.06 0.06 0.03 0.12 0.15 0.49 0.26 0.50 2.52 1.32 0.79 1.59 1.52 1.41 1.49 1.31 2.33 2.71 2.38 1.87 1.33 2.45 2.53 1.03 0.76 0.34 0.17 0.77 0.83 0.22 0.21 0.32 0.13 0.20
0.02 0.04 0.02 0.03 0.02 0.02 0.02 0.02 0.02 0.02 0.02 0.02 0.01 0.01 0.00 0.00 0.00 0.00 0.00 0.00 0.00 0.01 0.02 0.00 0.00 0.00 0.00 0.00 0.00 0.00 0.00 0.00 0.00 0.00 0.00 0.00 0.00 0.00 0.00 0.00 0.00 0.00 0.00 0.00 0.00 0.00 0.00 0.00 0.00 0.00 0.00 0.00 0.00 0.01 0.07 0.08 0.16 0.06 0.12 0.28 0.55 0.46 1.23 1.68 1.72 1.38 1.66 1.87 1.85 2.10 2.88 2.18 1.95 1.80 1.51 1.26 1.92 0.87 0.46 0.34 0.16 0.42 0.42 0.27 0.31 0.11 0.14 0.15
0.02 0.02 0.02 0.02 0.02 0.02 0.02 0.02 0.02 0.02 0.02 0.02 0.01 0.00 0.00 0.00 0.00 0.00 0.00 0.01 0.01 0.01 0.00 0.00 0.00 0.00 0.00 0.00 0.00 0.00 0.00 0.00 0.00 0.00 0.00 0.00 0.00 0.00 0.00 0.00 0.00 0.00 0.00 0.00 0.00 0.00 0.00 0.00 0.00 0.00 0.00 0.00 0.00 0.02 0.11 0.16 0.17 0.15 0.05 0.42 0.92 0.94 0.84 1.96 0.86 1.64 1.73 1.96 2.25 1.05 1.93 1.88 1.07 1.43 1.26 1.27 1.36 0.69 0.23 0.23 0.36 0.88 0.47 0.21 0.17 0.09 0.11 0.09
0.01 0.01 0.01 0.02 0.02 0.03 0.03 0.01 0.02 0.02 0.02 0.01 0.00 0.00 0.00 0.00 0.00 0.00 0.01 0.00 0.00 0.00 0.00 0.00 0.00 0.00 0.00 0.00 0.00 0.00 0.00 0.00 0.00 0.00 0.00 0.00 0.00 0.00 0.00 0.00 0.00 0.00 0.00 0.00 0.00 0.00 0.00 0.00 0.00 0.00 0.00 0.00 0.00 0.02 0.05 0.18 0.11 0.23 0.44 0.30 0.73 0.51 1.01 1.30 0.83 1.33 1.39 1.41 2.13 1.47 1.91 1.83 1.55 0.82 1.44 1.11 1.33 0.76 0.41 0.22 0.62 0.49 0.15 0.23 0.13 0.27 0.28 0.26
0.01 0.01 0.01 0.01 0.02 0.03 0.02 0.02 0.01 0.02 0.02 0.01 0.00 0.00 0.00 0.01 0.00 0.00 0.00 0.00 0.00 0.00 0.00 0.00 0.00 0.00 0.00 0.00 0.00 0.00 0.00 0.00 0.00 0.00 0.00 0.00 0.00 0.00 0.00 0.00 0.00 0.00 0.00 0.00 0.00 0.00 0.00 0.00 0.00 0.00 0.00 0.00 0.00 0.00 0.05 0.06 0.02 0.18 0.35 0.60 0.76 1.08 1.34 1.60 1.05 0.68 0.89 1.64 1.81 2.06 1.64 2.06 1.64 2.09 2.23 2.16 1.05 1.22 0.57 0.53 0.84 0.43 0.37 0.46 0.66 0.52 0.68 0.34
0.01 0.02 0.01 0.01 0.01 0.03 0.03 0.02 0.01 0.02 0.03 0.00 0.00 0.00 0.00 0.00 0.00 0.00 0.00 0.00 0.00 0.00 0.00 0.00 0.00 0.00 0.00 0.00 0.00 0.00 0.00 0.00 0.00 0.00 0.00 0.00 0.00 0.00 0.00 0.00 0.00 0.00 0.00 0.00 0.00 0.00 0.00 0.00 0.00 0.00 0.00 0.00 0.01 0.01 0.03 0.01 0.03 0.03 0.10 0.22 0.77 0.52 0.79 0.82 1.11 0.90 1.49 1.99 1.76 2.54 2.07 2.00 1.54 1.76 2.18 2.63 1.83 1.73 1.21 1.05 1.08 0.74 0.89 1.04 1.37 1.23 0.44 0.42
0.02 0.01 0.01 0.00 0.01 0.01 0.02 0.01 0.01 0.01 0.04 0.00 0.00 0.00 0.00 0.00 0.00 0.00 0.00 0.00 0.00 0.00 0.00 0.00 0.00 0.00 0.00 0.00 0.00 0.00 0.00 0.00 0.00 0.00 0.00 0.00 0.00 0.00 0.00 0.00 0.00 0.00 0.00 0.00 0.00 0.00 0.00 0.00 0.00 0.00 0.00 0.00 0.00 0.00 0.01 0.02 0.02 0.12 0.07 0.32 0.47 0.50 1.00 0.94 1.18 1.27 2.43 1.69 1.91 2.11 2.43 2.75 2.31 2.17 2.26 2.61 1.60 1.39 0.80 0.67 0.68 1.50 0.75 1.53 1.04 1.08 0.74 0.67
0.01 0.01 0.00 0.01 0.01 0.01 0.01 0.01 0.01 0.02 0.02 0.00 0.00 0.00 0.00 0.00 0.00 0.00 0.00 0.00 0.00 0.00 0.00 0.00 0.00 0.00 0.00 0.00 0.00 0.00 0.00 0.00 0.00 0.00 0.00 0.00 0.00 0.00 0.00 0.00 0.00 0.00 0.00 0.00 0.00 0.00 0.00 0.00 0.00 0.00 0.00 0.00 0.00 0.00 0.00 0.03 0.04 0.04 0.12 0.39 0.59 0.48 0.62 0.79 1.67 1.30 2.03 1.57 2.92 2.92 2.81 3.59 3.10 2.65 2.67 2.43 1.50 1.77 1.35 1.10 1.48 0.84 1.07 1.01 1.23 0.63 0.49 0.70
0.01 0.01 0.01 0.01 0.01 0.01 0.01 0.01 0.01 0.02 0.00 0.00 0.00 0.00 0.00 0.00 0.00 0.00 0.00 0.00 0.00 0.00 0.00 0.00 0.00 0.00 0.00 0.00 0.00 0.00 0.00 0.00 0.00 0.00 0.00 0.00 0.00 0.00 0.00 0.00 0.00 0.00 0.00 0.00 0.00 0.00 0.00 0.00 0.00 0.00 0.00 0.00 0.00 0.00 0.00 0.00 0.01 0.02 0.04 0.14 0.23 0.70 0.31 0.68 1.73 1.73 2.80 1.02 2.99 2.41 1.63 3.12 3.84 3.33 3.28 2.55 1.69 2.05 2.50 1.85 1.14 1.53 1.90 1.24 0.88 0.92 0.32 0.40
0.01 0.01 0.01 0.01 0.01 0.01 0.01 0.00 0.03 0.01 0.00 0.00 0.00 0.00 0.00 0.00 0.00 0.00 0.00 0.00 0.00 0.00 0.00 0.00 0.00 0.00 0.00 0.00 0.00 0.00 0.00 0.00 0.00 0.00 0.00 0.00 0.00 0.00 0.00 0.00 0.00 0.00 0.00 0.00 0.00 0.00 0.00 0.00 0.00 0.00 0.00 0.00 0.00 0.00 0.00 0.00 0.01 0.00 0.00 0.02 0.12 0.12 0.34 0.42 0.94 0.48 1.75 1.81 1.26 2.52 3.07 3.38 2.57 3.17 2.43 2.52 1.81 2.64 2.34 2.68 2.10 1.92 1.84 1.30 1.20 0.75 0.77 0.69
0.01 0.01 0.01 0.01 0.01 0.02 0.00 0.01 0.00 0.00 0.00 0.00 0.00 0.00 0.00 0.00 0.00 0.00 0.00 0.00 0.00 0.00 0.00 0.00 0.00 0.00 0.00 0.00 0.00 0.00 0.00 0.00 0.00 0.00 0.00 0.00 0.00 0.00 0.00 0.00 0.00 0.00 0.00 0.00 0.00 0.00 0.00 0.00 0.00 0.00 0.00 0.00 0.00 0.00 0.00 0.00 0.01 0.00 0.00 0.02 0.03 0.03 0.40 0.13 0.21 0.20 0.82 1.59 0.84 0.98 2.16 3.42 1.64 1.83 1.32 1.73 2.13 1.93 2.26 2.21 1.94 1.57 1.38 0.63 0.64 0.50 1.27 1.77
0.01 0.01 0.01 0.02 0.02 0.01 0.01 0.00 0.00 0.00 0.00 0.00 0.00 0.00 0.00 0.00 0.00 0.00 0.00 0.00 0.01 0.00 0.00 0.00 0.00 0.00 0.00 0.00 0.00 0.00 0.00 0.00 0.00 0.00 0.00 0.00 0.00 0.00 0.00 0.00 0.00 0.00 0.00 0.00 0.00 0.00 0.00 0.00 0.00 0.00 0.00 0.00 0.00 0.01 0.00 0.00 0.00 0.00 0.04 0.00 0.01 0.03 0.25 0.20 0.29 0.46 0.70 1.28 1.18 0.67 1.00 2.49 1.87 1.69 1.87 1.93 1.58 1.85 2.69 1.88 1.64 1.59 1.36 0.73 0.72 0.59 1.30 2.53
0.00 0.00 0.02 0.02 0.02 0.03 0.00 0.00 0.00 0.00 0.00 0.00 0.00 0.00 0.00 0.00 0.00 0.00 0.00 0.00 0.02 0.00 0.00 0.00 0.00 0.00 0.00 0.00 0.00 0.00 0.00 0.00 0.00 0.00 0.00 0.00 0.00 0.00 0.00 0.00 0.00 0.00 0.00 0.00 0.00 0.00 0.00 0.00 0.00 0.00 0.00 0.00 0.00 0.00 0.00 0.00 0.00 0.01 0.00 0.02 0.01 0.04 0.08 0.03 0.20 0.40 0.84 0.49 0.92 0.83 0.40 1.48 1.66 1.49 1.27 1.92 1.86 1.81 2.04 1.56 2.18 1.73 1.01 1.14 0.55 1.05 1.66 2.38
0.01 0.01 0.01 0.01 0.01 0.06 0.01 0.00 0.00 0.00 0.00 0.00 0.00 0.00 0.00 0.00 0.00 0.00 0.00 0.08 0.00 0.00 0.00 0.00 0.00 0.00 0.00 0.00 0.00 0.00 0.02 0.00 0.00 0.00 0.00 0.00 0.00 0.00 0.00 0.00 0.00 0.00 0.00 0.00 0.00 0.00 0.00 0.00 0.00 0.00 0.00 0.00 0.00 0.00 0.02 0.00 0.00 0.02 0.01 0.01 0.01 0.09 0.03 0.01 0.03 0.13 0.26 0.17 0.91 0.59 0.44 0.92 1.04 1.51 0.99 1.70 2.43 2.04 2.09 2.13 1.51 1.22 0.84 0.65 0.71 0.62 1.01 1.78
0.01 0.01 0.02 0.02 0.01 0.01 0.01 0.00 0.00 0.00 0.00 0.00 0.00 0.00 0.00 0.00 0.00 0.00 0.04 0.14 0.00 0.00 0.00 0.00 0.00 0.00 0.00 0.00 0.00 0.00 0.00 0.00 0.03 0.00 0.00 0.00 0.00 0.00 0.00 0.00 0.00 0.00 0.00 0.00 0.00 0.00 0.00 0.00 0.00 0.00 0.00 0.00 0.00 0.00 0.00 0.00 0.00 0.00 0.00 0.00 0.00 0.04 0.07 0.05 0.10 0.24 0.29 0.13 0.34 0.23 0.39 0.65 1.06 1.66 1.19 1.55 1.69 1.23 1.29 1.45 1.25 1.45 0.91 0.63 0.58 0.73 0.75 0.90
0.01 0.01 0.03 0.02 0.02 0.01 0.00 0.00 0.00 0.00 0.00 0.00 0.00 0.00 0.00 0.00 0.00 0.04 0.04 0.08 0.00 0.00 0.00 0.00 0.00 0.00 0.00 0.00 0.00 0.00 0.00 0.00 0.00 0.00 0.00 0.00 0.00 0.00 0.00 0.00 0.00 0.00 0.00 0.00 0.00 0.00 0.00 0.00 0.00 0.00 0.00 0.00 0.00 0.00 0.01 0.03 0.00 0.00 0.00 0.00 0.01 0.02 0.02 0.07 0.30 0.53 0.39 0.23 0.19 0.14 0.27 0.18 1.16 1.13 0.70 1.25 0.65 0.84 0.84 1.27 1.25 1.20 0.91 0.76 0.59 0.46 0.42 0.46
0.02 0.01 0.02 0.05 0.01 0.00 0.00 0.00 0.00 0.00 0.00 0.00 0.00 0.00 0.00 0.00 0.02 0.07 0.14 0.02 0.00 0.00 0.00 0.00 0.00 0.00 0.00 0.00 0.00 0.00 0.00 0.00 0.00 0.00 0.00 0.00 0.00 0.00 0.00 0.00 0.00 0.00 0.00 0.00 0.02 0.00 0.00 0.00 0.00 0.00 0.00 0.00 0.00 0.04 0.00 0.01 0.02 0.00 0.01 0.20 0.09 0.27 0.57 0.52 1.15 1.33 0.39 0.29 0.13 0.29 0.38 0.45 0.71 1.49 1.16 0.39 0.33 0.24 0.49 1.12 1.45 1.31 0.81 0.70 0.68 0.88 0.39 0.48
0.01 0.01 0.01 0.03 0.00 0.01 0.00 0.00 0.00 0.00 0.00 0.00 0.00 0.00 0.00 0.10 0.08 0.13 0.08 0.00 0.07 0.00 0.00 0.00 0.00 0.00 0.00 0.00 0.00 0.00 0.00 0.00 0.00 0.00 0.00 0.00 0.00 0.00 0.00 0.00 0.00 0.04 0.00 0.00 0.00 0.00 0.00 0.00 0.00 0.00 0.00 0.00 0.00 0.01 0.02 0.00 0.00 0.00 0.03 0.05 0.24 0.75 1.07 0.50 1.20 0.55 0.40 0.60 0.64 0.51 0.69 1.38 0.42 0.49 0.42 0.40 0.25 0.63 0.42 0.48 0.57 1.01 0.94 0.78 0.60 0.69 0.84 0.84
0.01 0.00 0.01 0.01 0.01 0.00 0.00 0.00 0.00 0.00 0.00 0.00 0.00 0.00 0.01 0.21 0.19 0.07 0.09 0.00 0.05 0.00 0.00 0.00 0.00 0.00 0.00 0.00 0.00 0.00 0.00 0.03 0.00 0.00 0.00 0.00 0.00 0.00 0.00 0.00 0.00 0.00 0.06 0.01 0.00 0.00 0.00 0.00 0.00 0.00 0.00 0.00 0.00 0.01 0.05 0.00 0.08 0.01 0.03 0.06 0.06 0.28 0.25 0.33 0.25 0.24 0.36 0.26 0.39 0.55 0.93 0.76 0.47 0.31 0.17 0.32 0.42 0.24 0.55 0.55 0.48 0.80 0.84 0.74 0.52 0.32 0.64 0.67
0.01 0.00 0.00 0.00 0.00 0.00 0.00 0.00 0.00 0.00 0.00 0.00 0.00 0.00 0.06 0.10 0.21 0.02 0.01 0.00 0.01 0.00 0.00 0.01 0.00 0.00 0.00 0.03 0.01 0.00 0.01 0.00 0.00 0.01 0.00 0.01 0.00 0.00 0.00 0.00 0.00 0.00 0.00 0.01 0.00 0.00 0.02 0.00 0.00 0.00 0.00 0.00 0.00 0.00 0.00 0.02 0.00 0.08 0.02 0.03 0.05 0.14 0.19 0.41 0.38 0.57 0.31 0.84 0.57 0.69 0.35 1.05 0.62 3.16 0.27 0.55 0.14 0.17 0.18 0.28 0.37 0.53 1.10 1.14 0.96 0.60 0.56 0.43
0.01 0.00 0.00 0.00 0.00 0.00 0.00 0.00 0.00 0.00 0.00 0.00 0.00 0.10 0.18 0.08 0.05 0.04 0.01 0.00 0.00 0.00 0.00 0.00 0.00 0.00 0.01 0.00 0.00 0.00 0.00 0.01 0.00 0.00 0.00 0.00 0.00 0.01 0.00 0.00 0.00 0.00 0.00 0.01 0.00 0.00 0.00 0.00 0.00 0.00 0.00 0.00 0.00 0.00 0.00 0.01 0.01 0.01 0.09 0.04 0.01 0.03 0.01 0.09 0.26 0.19 0.22 0.33 0.48 0.81 0.59 0.52 0.90 0.48 0.40 0.36 0.35 0.28 0.29 0.49 0.62 1.09 0.99 1.06 1.11 1.09 0.78 0.51
0.01 0.00 0.00 0.00 0.00 0.00 0.00 0.00 0.00 0.00 0.00 0.00 0.06 0.17 0.24 0.04 0.09 0.00 0.01 0.00 0.00 0.00 0.00 0.00 0.00 0.00 0.00 0.01 0.00 0.01 0.00 0.00 0.01 0.00 0.00 0.00 0.00 0.02 0.00 0.00 0.00 0.00 0.00 0.02 0.02 0.04 0.00 0.00 0.00 0.00 0.00 0.00 0.00 0.00 0.00 0.00 0.05 0.02 0.02 0.06 0.00 0.01 0.01 0.16 0.04 0.07 0.08 0.22 0.41 0.24 0.46 0.26 0.17 0.34 0.39 0.74 0.85 0.61 0.50 0.51 0.38 0.78 0.84 0.73 0.74 0.82 1.04 0.54
0.00 0.00 0.01 0.00 0.00 0.00 0.00 0.00 0.00 0.00 0.00 0.00 0.16 0.31 0.04 0.03 0.00 0.00 0.00 0.00 0.00 0.00 0.00 0.00 0.00 0.00 0.00 0.05 0.03 0.00 0.00 0.00 0.00 0.00 0.03 0.00 0.01 0.00 0.00 0.00 0.00 0.00 0.00 0.00 0.01 0.01 0.01 0.04 0.00 0.00 0.00 0.00 0.00 0.00 0.00 0.00 0.00 0.01 0.06 0.00 0.00 0.00 0.08 0.05 0.31 0.15 0.22 0.37 0.78 0.25 0.45 0.69 0.45 1.67 0.60 1.04 0.98 0.92 0.48 0.30 0.54 0.58 0.62 0.93 0.56 0.71 0.67 0.81
0.00 0.00 0.00 0.00 0.00 0.00 0.00 0.00 0.00 0.00 0.00 0.07 0.16 0.01 0.00 0.04 0.00 0.00 0.00 0.00 0.00 0.00 0.00 0.00 0.00 0.00 0.00 0.00 0.05 0.01 0.00 0.00 0.01 0.00 0.04 0.00 0.06 0.00 0.00 0.00 0.00 0.00 0.00 0.00 0.01 0.02 0.00 0.03 0.00 0.00 0.00 0.00 0.00 0.00 0.03 0.01 0.00 0.01 0.02 0.01 0.05 0.21 0.17 0.05 0.10 0.30 0.32 0.49 0.60 0.58 0.62 0.55 0.65 1.08 0.46 0.66 0.43 0.55 0.43 0.83 0.94 0.61 0.81 1.04 1.01 0.67 0.48 0.57
0.00 0.00 0.00 0.00 0.00 0.00 0.00 0.00 0.00 0.00 0.03 0.16 0.08 0.05 0.01 0.01 0.00 0.00 0.00 0.00 0.00 0.00 0.00 0.00 0.00 0.00 0.00 0.00 0.02 0.00 0.01 0.03 0.00 0.01 0.03 0.02 0.11 0.00 0.00 0.00 0.00 0.00 0.00 0.00 0.00 0.00 0.00 0.02 0.01 0.00 0.00 0.00 0.00 0.00 0.04 0.00 0.01 0.00 0.00 0.02 0.00 0.06 0.06 0.12 0.04 0.23 0.20 0.47 0.30 1.35 0.90 1.10 1.11 1.31 0.34 0.77 0.73 0.37 0.36 0.29 0.38 0.91 0.87 1.06 1.07 0.92 0.51 0.39
0.00 0.01 0.00 0.00 0.00 0.00 0.00 0.00 0.00 0.01 0.11 0.37 0.09 0.07 0.01 0.00 0.00 0.00 0.00 0.00 0.00 0.00 0.06 0.00 0.00 0.00 0.00 0.00 0.00 0.01 0.01 0.01 0.01 0.03 0.02 0.02 0.00 0.00 0.00 0.00 0.00 0.00 0.00 0.00 0.00 0.00 0.00 0.00 0.04 0.03 0.00 0.00 0.03 0.00 0.02 0.01 0.01 0.01 0.00 0.01 0.00 0.00 0.14 0.03 0.04 0.03 0.25 0.25 0.24 0.53 0.93 0.79 0.86 0.52 0.66 0.72 0.45 0.34 0.40 0.41 0.83 1.42 1.31 1.21 0.74 1.04 1.38 0.84
0.00 0.00 0.01 0.00 0.00 0.00 0.00 0.00 0.03 0.10 0.07 0.11 0.01 0.02 0.01 0.01 0.00 0.00 0.00 0.00 0.00 0.00 0.00 0.00 0.00 0.00 0.00 0.01 0.02 0.00 0.00 0.00 0.01 0.02 0.01 0.01 0.00 0.02 0.00 0.00 0.00 0.00 0.00 0.00 0.00 0.00 0.00 0.00 0.03 0.03 0.06 0.02 0.06 0.00 0.01 0.00 0.00 0.01 0.01 0.04 0.05 0.03 0.12 0.10 0.35 0.02 0.03 0.08 0.31 0.35 0.79 1.04 0.69 0.82 0.81 1.53 1.43 1.16 0.93 1.19 1.35 1.35 1.22 1.04 0.74 1.58 1.46 0.76
0.00 0.05 0.00 0.00 0.00 0.00 0.00 0.09 0.07 0.05 0.05 0.13 0.15 0.01 0.02 0.00 0.01 0.00 0.00 0.00 0.00 0.00 0.00 0.00 0.00 0.00 0.00 0.00 0.00 0.01 0.00 0.00 0.02 0.02 0.01 0.04 0.00 0.00 0.00 0.00 0.00 0.00 0.00 0.04 0.06 0.06 0.00 0.03 0.01 0.16 0.04 0.06 0.01 0.01 0.00 0.00 0.00 0.00 0.00 0.03 0.01 0.01 0.01 0.05 0.07 0.13 0.01 0.06 0.04 0.30 0.47 1.30 0.41 0.85 0.68 0.82 0.65 0.57 0.68 0.76 0.91 0.94 0.77 0.70 0.87 1.25 1.93 1.37
0.00 0.01 0.00 0.00 0.00 0.00 0.00 0.05 0.03 0.02 0.08 0.04 0.01 0.03 0.01 0.02 0.01 0.04 0.01 0.03 0.02 0.05 0.02 0.01 0.00 0.01 0.01 0.00 0.00 0.00 0.00 0.01 0.02 0.03 0.08 0.02 0.05 0.00 0.00 0.00 0.00 0.00 0.00 0.00 0.00 0.01 0.00 0.03 0.03 0.02 0.02 0.02 0.00 0.01 0.00 0.00 0.00 0.00 0.00 0.00 0.00 0.04 0.01 0.07 0.10 0.08 0.20 0.25 0.12 0.56 0.48 1.16 0.52 0.43 0.81 1.15 0.90 0.66 0.74 0.51 0.90 0.60 0.59 0.40 1.41 0.82 1.67 1.69
0.00 0.01 0.00 0.00 0.00 0.00 0.02 0.15 0.15 0.07 0.01 0.01 0.02 0.03 0.00 0.01 0.01 0.06 0.04 0.05 0.04 0.05 0.04 0.03 0.02 0.04 0.02 0.00 0.01 0.01 0.01 0.02 0.04 0.03 0.05 0.05 0.05 0.01 0.00 0.00 0.00 0.00 0.00 0.02 0.01 0.06 0.01 0.06 0.06 0.20 0.12 0.06 0.11 0.00 0.00 0.00 0.00 0.02 0.03 0.02 0.03 0.01 0.00 0.00 0.03 0.03 0.10 0.14 0.20 0.15 0.87 1.00 0.51 0.33 0.29 0.77 0.64 0.56 0.67 0.85 0.65 0.38 0.53 0.59 0.94 1.79 1.33 1.49
0.02 0.01 0.00 0.00 0.00 0.00 0.07 0.10 0.07 0.09 0.02 0.02 0.05 0.02 0.04 0.03 0.02 0.02 0.03 0.05 0.04 0.05 0.01 0.04 0.08 0.09 0.03 0.02 0.01 0.00 0.01 0.00 0.04 0.04 0.05 0.06 0.05 0.02 0.00 0.00 0.00 0.00 0.00 0.00 0.00 0.00 0.00 0.13 0.08 0.17 0.25 0.24 0.27 0.39 0.52 0.34 0.17 0.18 0.05 0.08 0.05 0.05 0.08 0.08 0.06 0.05 0.02 0.27 0.12 0.24 0.57 0.65 0.63 0.45 0.37 0.42 0.36 0.41 0.64 0.56 0.51 0.63 0.74 0.46 0.72 0.96 1.67 1.75
0.02 0.22 0.01 0.00 0.00 0.02 0.02 0.00 0.02 0.07 0.07 0.03 0.02 0.03 0.01 0.06 0.03 0.03 0.02 0.03 0.01 0.02 0.05 0.05 0.03 0.03 0.09 0.08 0.05 0.02 0.01 0.01 0.02 0.07 0.10 0.12 0.06 0.04 0.02 0.01 0.00 0.00 0.00 0.00 0.01 0.00 0.06 0.03 0.05 0.06 0.11 0.28 0.49 0.15 0.03 0.03 0.08 0.14 0.12 0.05 0.06 0.06 0.03 0.11 0.09 0.13 0.23 0.15 0.26 0.29 0.30 0.30 0.22 0.53 0.26 0.30 0.45 0.42 0.41 0.39 0.31 0.27 0.30 0.65 0.59 1.16 1.25 1.59
0.17 0.07 0.02 0.28 0.02 0.12 0.01 0.09 0.05 0.11 0.09 0.03 0.12 0.04 0.06 0.03 0.01 0.03 0.02 0.16 0.08 0.02 0.02 0.06 0.06 0.06 0.13 0.10 0.10 0.07 0.04 0.02 0.03 0.05 0.11 0.11 0.07 0.04 0.03 0.02 0.01 0.01 0.01 0.00 0.00 0.01 0.02 0.06 0.11 0.06 0.01 0.12 0.19 0.10 0.08 0.05 0.09 0.10 0.20 0.14 0.06 0.08 0.05 0.02 0.07 0.38 0.13 0.08 0.22 0.50 0.31 0.33 0.45 0.30 0.25 0.24 0.31 0.55 0.33 0.23 0.34 0.21 0.30 0.45 0.58 0.99 0.98 1.78
0.27 0.08 0.06 0.41 0.16 0.08 0.13 0.07 0.03 0.07 0.06 0.09 0.39 0.05 0.06 0.03 0.02 0.10 0.01 0.02 0.02 0.08 0.06 0.45 0.08 0.13 0.12 0.09 0.08 0.11 0.12 0.08 0.03 0.06 0.13 0.10 0.11 0.16 0.10 0.07 0.03 0.03 0.01 0.01 0.00 0.01 0.12 0.10 0.22 0.03 0.04 0.04 0.08 0.15 0.37 0.22 0.15 0.13 0.15 0.21 0.41 0.19 0.08 0.10 0.04 0.02 0.08 0.09 0.40 0.61 0.32 0.36 0.42 0.19 0.17 0.25 0.49 0.62 0.58 0.32 0.40 0.17 0.24 0.28 0.42 0.52 0.78 1.12
0.08 0.17 0.03 0.17 0.19 0.15 0.05 0.10 0.02 0.06 0.05 0.06 0.10 0.08 0.03 0.02 0.02 0.04 0.02 0.02 0.01 0.07 0.18 0.21 0.08 0.11 0.10 0.15 0.11 0.19 0.16 0.16 0.23 0.17 0.08 0.16 0.09 0.06 0.08 0.10 0.07 0.02 0.02 0.01 0.01 0.01 0.02 0.14 0.07 0.04 0.11 0.07 0.06 0.06 0.11 0.14 0.13 0.13 0.10 0.11 0.05 0.18 0.31 0.12 0.03 0.05 0.04 0.10 0.09 0.23 0.18 0.35 0.29 0.32 0.45 0.28 0.23 0.64 0.79 0.32 0.34 0.34 0.51 0.55 0.52 0.41 0.52 0.82
0.40 0.23 0.93 0.11 0.49 0.14 0.04 0.06 0.04 0.05 0.05 0.10 0.12 0.17 0.12 0.06 0.06 0.03 0.03 0.03 0.06 0.05 0.12 0.07 0.07 0.07 0.07 0.06 0.09 0.18 0.22 0.06 0.10 0.09 0.04 0.04 0.07 0.06 0.09 0.09 0.11 0.10 0.03 0.05 0.02 0.06 0.02 0.31 0.06 0.12 0.20 0.14 0.08 0.18 0.21 0.28 0.28 0.24 0.13 0.08 0.14 0.17 0.17 0.22 0.27 0.16 0.12 0.10 0.11 0.40 0.14 0.26 0.44 0.33 0.49 0.51 0.54 0.86 0.62 0.87 0.46 0.47 0.45 0.56 0.57 0.75 0.70 0.79
0.36 0.58 0.91 0.80 0.33 0.26 0.20 0.10 0.12 0.19 0.22 0.05 0.09 0.13 0.05 0.11 0.11 0.13 0.05 0.03 0.04 0.10 0.20 0.08 0.05 0.07 0.07 0.07 0.08 0.16 0.06 0.05 0.04 0.03 0.02 0.02 0.10 0.10 0.07 0.16 0.06 0.18 0.15 0.10 0.07 0.08 0.00 0.20 0.03 0.11 0.13 0.17 0.11 0.08 0.03 0.03 0.08 0.11 0.16 0.24 0.23 0.18 0.23 0.20 0.21 0.35 0.29 0.18 0.29 0.38 0.28 0.51 0.60 0.28 0.60 0.65 0.36 0.27 0.88 0.80 0.46 0.34 0.29 0.51 0.28 0.36 0.48 0.63
0.33 0.70 0.68 0.96 0.59 0.32 0.21 0.05 0.09 0.16 0.22 0.13 0.29 0.10 0.11 0.10 0.07 0.14 0.29 0.07 0.09 0.27 0.11 0.14 0.10 0.09 0.04 0.05 0.18 0.14 0.09 0.03 0.02 0.01 0.01 0.01 0.00 0.01 0.02 0.03 0.04 0.05 0.10 0.10 0.09 0.10 0.07 0.13 0.19 0.17 0.16 0.26 0.12 0.07 0.07 0.03 0.03 0.07 0.17 0.05 0.25 0.11 0.22 0.08 0.11 0.19 0.28 0.23 0.57 0.52 0.83 0.46 0.67 0.63 0.74 0.56 0.42 0.53 0.47 0.69 0.85 0.53 0.38 0.67 0.48 0.43 0.60 0.57